Stations météo

réclame
Mon MeteoGroup
Cordoba Aeropuerto (AWS), Espagne (8410): Température de l'air & dewpoint: 15.01.2019 17:00:00 - 21.01.2019 17:00:00 (CET)Cordoba Aeropuerto (AWS), Espagne (8410): Vitesse du vent: 15.01.2019 17:00:00 - 21.01.2019 17:00:00 (CET)Cordoba Aeropuerto (AWS), Espagne (8410): Direction du vent: 15.01.2019 17:00:00 - 21.01.2019 17:00:00 (CET)Cordoba Aeropuerto (AWS), Espagne (8410): reduced air pressure: 15.01.2019 17:00:00 - 21.01.2019 17:00:00 (CET)Cordoba Aeropuerto (AWS), Espagne (8410): visibility: 15.01.2019 17:00:00 - 21.01.2019 17:00:00 (CET)
Date & Time tt [°C] td [°C] ff [km/h] ff [knt] dd ppp [hPa] vv [km]
21.01.2019 17:00:00 16,2 2,4 0 0 N 1020,8 -
21.01.2019 16:00:00 15,5 2,7 4 2 SSW 1020,9 40
21.01.2019 15:00:00 15,4 4,0 4 2 ENE 1020,9 -
21.01.2019 14:00:00 14,4 3,3 8 4 ESE 1021,4 -
21.01.2019 13:00:00 12,7 5,1 4 2 ESE 1022,4 30
21.01.2019 12:00:00 9,8 4,4 5 3 E 1023,3 -
21.01.2019 11:00:00 - - - - - - -
21.01.2019 10:00:00 - - - - - - 25
21.01.2019 09:00:00 - - - - - - -
21.01.2019 08:00:00 - - - - - - -
21.01.2019 07:00:00 - - - - - - -
21.01.2019 06:00:00 - - - - - - -
21.01.2019 05:00:00 - - - - - - -
21.01.2019 04:00:00 - - - - - - -
21.01.2019 03:00:00 - - - - - - -
21.01.2019 02:00:00 - - - - - - -
21.01.2019 01:00:00 - - - - - - -
21.01.2019 00:00:00 - - - - - - -
20.01.2019 23:00:00 5,5 3,8 4 2 SSE 1019,4 -
20.01.2019 22:00:00 7,3 4,4 0 0 N 1018,6 -
20.01.2019 21:00:00 7,7 4,2 4 2 S 1018,3 -
20.01.2019 20:00:00 9,5 5,1 13 7 WNW 1017,5 -
20.01.2019 19:00:00 11,5 5,8 11 6 NW 1016,5 -
20.01.2019 18:00:00 14,8 5,8 9 5 NNW 1015,6 -
20.01.2019 17:00:00 16,0 3,4 13 7 N 1014,8 -
20.01.2019 16:00:00 16,1 5,8 22 12 N 1014,4 50
20.01.2019 15:00:00 15,7 6,3 13 7 N 1014,0 -
20.01.2019 14:00:00 15,2 8,0 15 8 N 1013,8 -
20.01.2019 13:00:00 14,3 8,9 9 5 NW 1014,1 50
20.01.2019 12:00:00 13,1 9,1 8 4 NNW 1014,2 -
20.01.2019 11:00:00 12,2 10,9 13 7 WSW 1013,1 -
20.01.2019 10:00:00 10,6 10,4 9 5 SW 1012,1 30
20.01.2019 09:00:00 10,6 10,4 16 9 WSW 1011,6 -
20.01.2019 08:00:00 10,3 10,1 15 8 WSW 1011,1 -
20.01.2019 07:00:00 10,3 10,1 18 10 WSW 1010,8 -
20.01.2019 06:00:00 10,1 9,8 16 9 W 1010,9 -
20.01.2019 05:00:00 10,2 9,9 18 10 W 1011,2 -
20.01.2019 04:00:00 10,0 9,7 8 4 W 1011,7 -
20.01.2019 03:00:00 9,7 9,4 5 3 WSW 1012,2 -
20.01.2019 02:00:00 9,7 9,4 0 0 N 1012,3 -
20.01.2019 01:00:00 9,6 9,3 8 4 E 1012,6 -
20.01.2019 00:00:00 9,4 9,1 5 3 WNW 1013,0 -
19.01.2019 23:00:00 9,5 9,2 4 2 WSW 1014,2 -
19.01.2019 22:00:00 9,5 9,0 4 2 ENE 1014,7 -
19.01.2019 21:00:00 9,5 8,9 4 2 WNW 1015,7 -
19.01.2019 20:00:00 9,7 8,8 5 3 W 1016,3 -
19.01.2019 19:00:00 9,8 8,7 8 4 W 1016,7 -
19.01.2019 18:00:00 10,0 8,8 9 5 WSW 1017,0 -
19.01.2019 17:00:00 10,8 7,8 13 7 WSW 1017,3 -
19.01.2019 16:00:00 11,4 8,2 15 8 WSW 1017,8 30
19.01.2019 15:00:00 11,1 7,3 9 5 W 1018,2 -
19.01.2019 14:00:00 11,0 6,1 8 4 WSW 1018,9 -
19.01.2019 13:00:00 11,2 5,2 2 1 ESE 1019,7 25
19.01.2019 12:00:00 9,4 4,0 4 2 ENE 1020,5 -
19.01.2019 11:00:00 7,5 3,5 8 4 ENE 1020,4 -
19.01.2019 10:00:00 6,8 3,7 11 6 ENE 1020,0 30
19.01.2019 09:00:00 6,0 3,7 11 6 E 1019,7 -
19.01.2019 08:00:00 5,9 3,9 9 5 ENE 1019,5 -
19.01.2019 07:00:00 5,6 4,4 5 3 ENE 1019,4 -
19.01.2019 06:00:00 4,8 3,8 4 2 NNE 1019,6 -
19.01.2019 05:00:00 5,3 3,8 0 0 N 1019,7 -
19.01.2019 04:00:00 5,8 4,0 5 3 NE 1020,0 -
19.01.2019 03:00:00 6,7 3,8 0 0 N 1019,9 -
19.01.2019 02:00:00 7,8 4,2 4 2 W 1019,9 -
19.01.2019 01:00:00 8,1 4,1 4 2 WNW 1020,2 -
19.01.2019 00:00:00 8,5 4,1 2 1 NW 1020,2 -
18.01.2019 23:00:00 8,9 4,1 4 2 WSW 1020,1 -
18.01.2019 22:00:00 8,3 3,7 5 3 W 1019,9 -
18.01.2019 21:00:00 9,5 4,1 8 4 SSW 1019,5 -
18.01.2019 20:00:00 10,6 4,1 5 3 SW 1019,3 -
18.01.2019 19:00:00 12,2 3,2 9 5 WSW 1019,0 -
18.01.2019 18:00:00 13,3 3,6 9 5 SSW 1018,9 -
18.01.2019 17:00:00 14,6 3,1 9 5 SSW 1018,8 -
18.01.2019 16:00:00 15,1 3,4 5 3 SSW 1019,3 20
18.01.2019 15:00:00 15,0 2,6 4 2 W 1019,7 -
18.01.2019 14:00:00 13,3 3,5 4 2 SSW 1020,6 -
18.01.2019 13:00:00 13,1 4,5 4 2 SSE 1021,5 15
18.01.2019 12:00:00 10,6 4,3 4 2 ESE 1022,3 -
18.01.2019 11:00:00 7,7 4,1 4 2 S 1022,2 -
18.01.2019 10:00:00 2,6 2,2 0 0 N 1021,8 7
18.01.2019 09:00:00 0,6 0,3 0 0 N 1021,7 -
18.01.2019 08:00:00 0,8 0,5 2 1 NE 1021,4 -
18.01.2019 07:00:00 0,6 0,3 0 0 N 1020,6 -
18.01.2019 06:00:00 1,1 0,7 4 2 NNW 1020,2 -
18.01.2019 05:00:00 2,1 1,5 0 0 N 1020,2 -
18.01.2019 04:00:00 2,7 1,8 0 0 N 1020,4 -
18.01.2019 03:00:00 3,9 2,7 4 2 W 1020,3 -
18.01.2019 02:00:00 6,0 4,5 4 2 E 1020,2 -
18.01.2019 01:00:00 7,5 5,0 4 2 WSW 1020,4 -
18.01.2019 00:00:00 7,9 5,2 0 0 N 1020,4 -
17.01.2019 23:00:00 8,6 5,9 0 0 N 1019,8 -
17.01.2019 22:00:00 8,9 6,0 4 2 S 1019,5 -
17.01.2019 21:00:00 9,6 6,3 0 0 N 1019,2 -
17.01.2019 20:00:00 9,9 6,2 0 0 N 1019,0 -
17.01.2019 19:00:00 11,3 5,8 4 2 NNW 1018,2 -
17.01.2019 18:00:00 12,5 5,6 0 0 N 1017,8 -
17.01.2019 17:00:00 14,0 5,8 0 0 N 1017,5 -
17.01.2019 16:00:00 13,5 5,6 5 3 SSE 1017,5 15
17.01.2019 15:00:00 10,4 5,8 8 4 NE 1018,1 -
17.01.2019 14:00:00 11,2 5,6 0 0 N 1018,5 -
17.01.2019 13:00:00 9,6 5,2 0 0 N 1019,8 8
17.01.2019 12:00:00 8,5 5,2 8 4 ENE 1020,5 -
17.01.2019 11:00:00 6,3 5,1 4 2 E 1020,4 -
17.01.2019 10:00:00 3,3 3,0 4 2 SE 1020,1 5
17.01.2019 09:00:00 1,1 0,8 4 2 SSE 1019,9 -
17.01.2019 08:00:00 0,9 0,5 4 2 SE 1019,5 -
17.01.2019 07:00:00 1,5 1,1 2 1 ENE 1019,0 -
17.01.2019 06:00:00 2,0 1,4 2 1 NE 1018,9 -
17.01.2019 05:00:00 2,2 1,3 2 1 S 1019,1 -
17.01.2019 04:00:00 2,9 1,7 4 2 W 1019,2 -
17.01.2019 03:00:00 3,5 2,0 4 2 WSW 1019,3 -
17.01.2019 02:00:00 4,8 3,5 4 2 E 1019,3 -
17.01.2019 01:00:00 4,8 3,0 4 2 NNE 1019,9 -
17.01.2019 00:00:00 5,0 2,5 0 0 N 1020,0 -
16.01.2019 23:00:00 5,9 3,4 5 3 W 1020,1 -
16.01.2019 22:00:00 5,9 3,3 2 1 SSW 1019,8 -
16.01.2019 21:00:00 6,8 4,5 0 0 N 1019,4 -
16.01.2019 20:00:00 8,2 4,8 2 1 NNE 1019,2 -
16.01.2019 19:00:00 10,7 5,4 0 0 N 1018,7 -
16.01.2019 18:00:00 13,9 5,5 8 4 SW 1018,4 -
16.01.2019 17:00:00 15,6 5,8 9 5 SW 1018,6 -
16.01.2019 16:00:00 16,3 5,3 9 5 SW 1018,8 15
16.01.2019 15:00:00 15,9 5,6 8 4 WSW 1019,2 -
16.01.2019 14:00:00 14,4 6,5 4 2 SSE 1019,9 -
16.01.2019 13:00:00 12,5 5,4 11 6 E 1020,9 13
16.01.2019 12:00:00 10,9 5,0 15 8 E 1021,9 -
16.01.2019 11:00:00 8,4 4,8 11 6 ENE 1022,3 -
16.01.2019 10:00:00 7,3 4,6 8 4 E 1021,9 9
16.01.2019 09:00:00 5,8 4,1 4 2 ENE 1021,7 -
16.01.2019 08:00:00 5,2 4,0 4 2 E 1021,6 -
16.01.2019 07:00:00 5,0 3,5 5 3 E 1021,3 -
16.01.2019 06:00:00 5,6 3,9 5 3 ENE 1021,3 -
16.01.2019 05:00:00 6,2 4,7 5 3 ENE 1021,5 -
16.01.2019 04:00:00 5,1 3,6 0 0 N 1022,1 -
16.01.2019 03:00:00 4,5 3,8 4 2 SSW 1022,2 -
16.01.2019 02:00:00 3,7 2,4 5 3 NW 1022,3 -
16.01.2019 01:00:00 5,0 3,5 5 3 NNE 1022,5 -
16.01.2019 00:00:00 5,2 3,4 0 0 N 1022,7 -
15.01.2019 23:00:00 5,3 3,3 0 0 N 1022,5 -
15.01.2019 22:00:00 6,0 3,4 4 2 SSW 1022,0 -
15.01.2019 21:00:00 6,9 3,3 4 2 SSW 1021,6 -
15.01.2019 20:00:00 8,5 4,7 4 2 S 1021,3 -
15.01.2019 19:00:00 11,1 4,8 8 4 SSW 1020,9 -
15.01.2019 18:00:00 14,3 5,2 8 4 WSW 1020,3 -
15.01.2019 17:00:00 15,6 4,9 9 5 W 1020,5 -

tt = Température de l'air
td = dewpoint
ff = Vitesse du vent
dd = Direction du vent
ppp = reduced air pressure
vv = visibility

stations d'obs. à proximité